Meteo Giornale » Osservazioni meteo Gran Bretagna » Doncaster Sheffield

ore: 15:50 - Osservazioni Meteo Doncaster Sheffield
Lat. 53° 29' N Lon. 1° 0' W Alt. 17 metri s.l.m.

molto_nuvoloso Europe/London

21 °C

Molto Nuvoloso

Temp. 24 Ore

11 °C

21 °C

Ovest/Sud-Ovest

22.2 Km/h

Dew point 16 °C

Umidità 73 %

Visibilità  10 Km

Il sole sorge alle ore 06:52

Il sole tramonta alle ore 18:59

Data e Ora Cielo e Fenomeni T °C DP °C Um. % Pres. hPa Vis. km Vento km/h
Oggi h: 15:50 molto_nuvoloso Molto Nuvoloso 21 16 73 1012 10 O/SO 22.2
Oggi h: 15:20 molto_nuvoloso Molto Nuvoloso 21 16 73 1012 10 O/SO 24
Oggi h: 14:50 molto_nuvoloso Molto Nuvoloso 20 16 77 1013 10 O/SO 22.2
Oggi h: 13:50 molto_nuvoloso Molto Nuvoloso 20 16 77 1013 10 O 27.8
Oggi h: 13:20 poco_nuvoloso Poco Nuvoloso 21 16 73 1013 10 O 29.6
Oggi h: 12:50 poco_nuvoloso Poco Nuvoloso 21 15 68 1013 10 O 35.2
Oggi h: 12:20 nuvoloso Nuvoloso 21 15 68 1013 10 O/SO 27.8
Oggi h: 11:50 nuvoloso Nuvoloso 21 15 68 1013 10 O/SO 24
Oggi h: 11:20 nuvoloso Nuvoloso 20 14 68 1013 10 O 14.8
Oggi h: 10:50 poco_nuvoloso Poco Nuvoloso 19 14 72 1014 10 O/SO 22.2
Oggi h: 10:20 poco_nuvoloso Poco Nuvoloso 18 13 72 1014 10 SO 20.3
Oggi h: 09:50 poco_nuvoloso Poco Nuvoloso 18 12 67 1014 10 O/SO 20.3
Oggi h: 09:20 sereno Sereno 16 12 77 1013 10 SO 22.2
Oggi h: 08:20 poco_nuvoloso Poco Nuvoloso 14 12 87 1013 10 S/SO 18.5
Oggi h: 07:50 nuvoloso Nuvoloso 13 12 93 1014 10 S/SO 14.8
Oggi h: 07:20 nuvoloso Nuvoloso 12 11 93 1014 10 SE 9.3
Oggi h: 06:50 sereno Sereno 12 11 93 1014 10 S/SE 7.4
Oggi h: 06:20 sereno Sereno 12 11 93 1014 10 S 11.1
Oggi h: 05:50 sereno Sereno 12 11 93 1015 10 N 3.7
Oggi h: 05:20 sereno Sereno 12 11 93 1015 10 E/SE 9.3
Oggi h: 04:50 sereno Sereno 12 11 93 1015 10 SE 14.8
Oggi h: 04:20 sereno Sereno 11 11 100 1015 10 S 14.8
Oggi h: 03:50 poco_nuvoloso Poco Nuvoloso 13 12 93 1015 10 S/SE 9.3
Oggi h: 03:20 nuvoloso Nuvoloso 13 11 87 1015 10 S/SO 9.3
Oggi h: 02:50 sereno Sereno 15 12 82 1016 10 SO 11.1
Oggi h: 02:20 sereno Sereno 15 12 82 1016 10 O/SO 9.3
Oggi h: 01:50 sereno Sereno 15 12 82 1016 10 O 18.5
Oggi h: 01:20 sereno Sereno 15 12 82 1017 10 SO 9.3
Oggi h: 00:50 poco_nuvoloso Poco Nuvoloso 15 13 87 1017 10 SO 9.3
Oggi h: 00:20 poco_nuvoloso Poco Nuvoloso 13 12 93 1018 10 S/SO 9.3
Ieri h: 23:50 coperto Coperto 14 12 87 1018 10 O/SO 14.8
Ieri h: 22:50 molto_nuvoloso Molto Nuvoloso 12 11 93 1018 10 S/SO 9.3
Ieri h: 22:20 sereno Sereno 12 11 93 1018 10 SO 13
Ieri h: 21:50 sereno Sereno 12 10 87 1018 10 S 7.4
Ieri h: 21:20 sereno Sereno 14 12 87 1018 10 O/SO 7.4
Ieri h: 20:50 sereno Sereno 15 12 82 1018 10 O 11.1
Ieri h: 20:20 nuvoloso Nuvoloso 15 12 82 1019 10 O 20.3
Ieri h: 19:50 poco_nuvoloso Poco Nuvoloso 16 12 77 1019 10 O/NO 20.3
Ieri h: 19:20 molto_nuvoloso Molto Nuvoloso 16 12 77 1019 10 O/NO 14.8
Ieri h: 18:50 poco_nuvoloso Poco Nuvoloso 16 12 77 1018 10 O 18.5
Ieri h: 18:20 poco_nuvoloso Poco Nuvoloso 16 12 77 1018 10 O 22.2
Ieri h: 17:50 poco_nuvoloso Poco Nuvoloso 17 12 72 1018 10 O 16.7
Ieri h: 17:20 nuvoloso Nuvoloso 17 12 72 1018 10 O 18.5
Ieri h: 16:50 nuvoloso Nuvoloso 17 12 72 1018 10 O 22.2